Location: Ajisawe
(8.4333°N, 4.3833°E)
Time: 23:57:45
(UTC+00:00)

Courier 1B Rocket - Pass Details

Date: 01 May 2021
Orbit: 920 x 1202 km, 28.3° (Epoch: 13 May)

Event Time Altitude Azimuth Distance (km) Brightness Sun altitude
Rises 15:13:48 0° 295° (WNW) 3,586 8.9 37.3°
Reaches altitude 10° 15:17:59 10° 321° (NW) 2,612 8.1 36.2°
Maximum altitude 15:20:58 14° 349° (N) 2,351 7.4 35.5°
Drops below altitude 10° 15:23:56 10° 18° (NNE) 2,599 7.3 34.8°
Sets 15:28:05 0° 44° (NE) 3,555 7.7 33.8°
